Minneapolis-Saint Paul International, MN

6:55 AM CDT on July 17, 2018 (GMT -0500)
Minneapolis-Saint Paul International | | Change Station
Active Advisory: Flood Warning

Elev 840 ft 44.88 °N, 93.22 °W | Updated 1 hour ago

Partly Cloudy
Partly Cloudy
65 °F
Feels Like 65 °F
N
7
Wind Variable Wind from North

Today
High -- | Low -- °F
--% Chance of Precip.
Yesterday
High -- | Low -- °F
Precip. -- in
Pressure 30.10 in
Visibility 10.0 miles
Clouds Few 6500 ft
Dew Point 55 °F
Humidity 70%
Rainfall 0.00 in
Snow Depth Not available.
5:42 AM 8:54 PM
Waxing Crescent, 26% visible
METAR KMSP 171053Z 01006KT 10SM FEW065 18/13 A3011 RMK AO2 SLP193 T01830128
Pressure 30.10 in
Visibility 10.0 miles
Clouds Few 6500 ft
Dew Point 55 °F
Humidity 70%
Rainfall 0.00 in
Snow Depth Not available.
5:42 AM 8:54 PM
Waxing Crescent, 26% visible
METAR KMSP 171053Z 01006KT 10SM FEW065 18/13 A3011 RMK AO2 SLP193 T01830128

Get Your Daily Forecast Email!

Thanks for signing up!

Be on the lookout for a verification email in your inbox.

You'll start receiving severe weather alerts in your inbox..

×

10-Day Weather Forecast

Almanac

Astronomy

Jul. 17, 2018 Rise Set
Actual Time
Civil Twilight
Nautical Twilight
Astronomical Twilight
Moon
Length of Visible Light
Length of Day
Tomorrow will be .
, % of the Moon is Illuminated

Today's Extremes

State Highs State Lows

Community

WunderPhotos

Category 6

Welcome to Category 6. This is the collective home for Weather Underground's featured writeups by Dr. Jeff Masters (right), Bob Henson (left), Chris Burt, and other regular contributors.

Nearby

Air Quality

  Air Quality AQ Index Pollutant
Not available.

Snow Depth

Station Depth Elevation

Earthquake Activity

City Distance Mag. Time & Date
Minimum magnitude displayed is 2.5.

Coastal Water Temperatures

Place Temperature

Stations

Nearby Weather Stations

Station Location Temp. Windchill Dew Point Humidity Wind Precip. Elev Updated Type
                   

Watches & Warnings

Flood Warning
Issued: 8:03 PM CDT Jul. 16, 2018 – National Weather Service

... The Flood Warning continues for
the Minnesota river at Savage.
* Until Wednesday night.
* At 7:00 PM Monday the stage was 702.9 feet.
* Minor flooding is occurring and is forecast to continue.
* Flood stage is 702.0 feet.
* Forecast... the river will fall below flood stage Wednesday morning.
* Impact... at 702.0 feet... barge loading stops at Port Cargill, and
other flood prevention measures are begun. Water begins to impact
Black Dog Road in Burnsville.
* Impact... at 700.0 feet... flood waters begin to cover trails at Fort
Snelling State Park as well as low parts on the Bloomington Ferry
bridge trail just east of US 169.


Lat... Lon 4484 9348 4484 9330 4491 9322 4482 9312 4473 9342